Portada
METAR-TAF:

METAR-TAF

Aeroports :

Dakar, Senegal

latitud: 14-44N, longitud: 017-30W, altitud: 27 m

Observació

L'informe es va fer fa 1 hora i 11 minuts, a les 05:00 UTC
Vent 12 kt del Nord
Temperatura 22°C
Humitat 83%
Pressió 1013 hPa
Visibilitat: 8000 m

METAR: GOOY 200500Z 36012KT 8000 NSC 22/19 Q1013

Hora: 06:11 (06:11 UTC)

Pronòstic

L'informe es va fer fa 41 minuts, a les 05:30 UTC
Pronòstic vàlid del 20 a les 06 UTC al 21 a les 12 UTC
Vent 10 kt del Nord
Visibilitat 10 km o més
sense núvols per sota de 1500 mi sense presència de cumulonimbus.

TAF: GOOY 200530Z 2006/2112 01010KT CAVOK

Observacions i pronòstics meteorològics de més de 4000 aeroports (METAR i TAF).

Les estacions disponibles són els punts grocs i vermells al mapa.

Posi el ratolí al punt desitjat per veure el nom de l'estació.

Feu clic per veure les observacions i els pronòstics meteorològics.

Per canviar el mapa: feu clic els botons verds amb una creu de color negre per apropar; al botó verd amb un guió per allunyar la imatge; o en les fletxes verdes per a mapes adjacents.


METAR-TAF: